Schneifelwetter: Wetterstation Hallschlag, 537 m . NN
Wetterdaten: Donnerstag, 11.03.2010
Datum Zeit Temp. A. Feuchte A. Luftdruck Regen Wind Richtung Richtung Sonnenschein Helligkeit T Regen Taupunkt Windchill
11.03.2010 00:00 -3,5 C 83 % 1015 hPa 0,0 l/m 36,9 km/h (5 Bft) N-NO22.5 30 0 min 0 lux 0,00 min -6,0 C -20,4 C
11.03.2010 00:15 -3,7 C 84 % 1015 hPa 0,0 l/m 32,8 km/h (5 Bft) N-NO22.5 20 0 min 0 lux 0,00 min -6,0 C -19,5 C
11.03.2010 00:30 -3,9 C 85 % 1015 hPa 0,0 l/m 30,1 km/h (5 Bft) N-NO22.5 25 0 min 0 lux 0,00 min -6,0 C -18,9 C
11.03.2010 00:45 -4,1 C 85 % 1015 hPa 0,0 l/m 23,6 km/h (4 Bft) N-NO45 25 0 min 0 lux 0,00 min -6,2 C -16,7 C
11.03.2010 01:00 -4,3 C 86 % 1015 hPa 0,0 l/m 27,5 km/h (4 Bft) N-NO22.5 25 0 min 0 lux 0,00 min -6,3 C -18,5 C
11.03.2010 01:15 -4,5 C 87 % 1015 hPa 0,0 l/m 25,8 km/h (4 Bft) N-NO22.5 25 0 min 0 lux 0,00 min -6,3 C -18,2 C
11.03.2010 01:30 -4,8 C 88 % 1015 hPa 0,0 l/m 29,9 km/h (5 Bft) NO45 35 0 min 0 lux 0,00 min -6,5 C -20,1 C
11.03.2010 01:45 -5,0 C 88 % 1015 hPa 0,0 l/m 26,1 km/h (4 Bft) NO22.5 35 0 min 0 lux 0,00 min -6,7 C -19,0 C
11.03.2010 02:00 -5,1 C 88 % 1015 hPa 0,0 l/m 25,5 km/h (4 Bft) N-NO22.5 30 0 min 0 lux 0,00 min -6,8 C -18,8 C
11.03.2010 02:16 -5,5 C 89 % 1015 hPa 0,0 l/m 18,8 km/h (3 Bft) N-NO22.5 25 0 min 0 lux 0,00 min -7,0 C -16,1 C
11.03.2010 02:31 -5,7 C 89 % 1015 hPa 0,0 l/m 19,7 km/h (3 Bft) N-NO45 25 0 min 0 lux 0,00 min -7,2 C -16,8 C
11.03.2010 02:46 -5,8 C 91 % 1015 hPa 0,0 l/m 24,4 km/h (4 Bft) N-NO22.5 25 0 min 0 lux 0,00 min -7,0 C -19,3 C
11.03.2010 03:01 -5,9 C 91 % 1014 hPa 0,0 l/m 29,0 km/h (5 Bft) N-NO22.5 25 0 min 0 lux 0,00 min -7,1 C -21,3 C
11.03.2010 03:16 -6,1 C 90 % 1014 hPa 0,0 l/m 19,5 km/h (3 Bft) N-NO22.5 20 0 min 0 lux 0,00 min -7,5 C -17,2 C
11.03.2010 03:31 -6,1 C 91 % 1014 hPa 0,0 l/m 18,9 km/h (3 Bft) N67.5 5 0 min 0 lux 0,00 min -7,3 C -16,9 C
11.03.2010 03:46 -6,2 C 91 % 1014 hPa 0,0 l/m 16,3 km/h (3 Bft) N-NO22.5 20 0 min 0 lux 0,00 min -7,4 C -15,4 C
11.03.2010 04:01 -6,2 C 92 % 1014 hPa 0,0 l/m 23,0 km/h (4 Bft) N-NO22.5 25 0 min 0 lux 0,00 min -7,3 C -19,2 C
11.03.2010 04:16 -6,3 C 92 % 1014 hPa 0,0 l/m 22,8 km/h (4 Bft) N-NO22.5 15 0 min 0 lux 0,00 min -7,4 C -19,2 C
11.03.2010 04:31 -6,3 C 92 % 1014 hPa 0,0 l/m 23,0 km/h (4 Bft) N-NO22.5 15 0 min 0 lux 0,00 min -7,4 C -19,3 C
11.03.2010 04:46 -6,3 C 92 % 1014 hPa 0,0 l/m 20,9 km/h (4 Bft) N-NO22.5 20 0 min 0 lux 0,00 min -7,4 C -18,3 C
11.03.2010 05:01 -6,3 C 92 % 1014 hPa 0,0 l/m 20,3 km/h (4 Bft) N-NO22.5 25 0 min 0 lux 0,00 min -7,4 C -17,9 C
11.03.2010 05:16 -6,3 C 92 % 1014 hPa 0,0 l/m 24,5 km/h (4 Bft) N-NO67.5 15 0 min 0 lux 0,00 min -7,4 C -20,0 C
11.03.2010 05:31 -6,5 C 92 % 1014 hPa 0,0 l/m 13,9 km/h (3 Bft) N-NO22.5 15 0 min 0 lux 0,00 min -7,6 C -14,0 C
11.03.2010 05:46 -6,5 C 92 % 1014 hPa 0,0 l/m 17,0 km/h (3 Bft) N-NO22.5 15 0 min 0 lux 0,00 min -7,6 C -16,2 C
11.03.2010 06:01 -6,6 C 93 % 1014 hPa 0,0 l/m 17,9 km/h (3 Bft) N-NO22.5 20 0 min 0 lux 0,00 min -7,5 C -16,9 C
11.03.2010 06:16 -6,5 C 93 % 1014 hPa 0,0 l/m 23,4 km/h (4 Bft) N-NO22.5 15 0 min 0 lux 0,00 min -7,4 C -19,8 C
11.03.2010 06:31 -6,4 C 93 % 1014 hPa 0,0 l/m 21,1 km/h (4 Bft) N-NO22.5 15 0 min 0 lux 0,00 min -7,3 C -18,5 C
11.03.2010 06:46 -6,3 C 94 % 1014 hPa 0,0 l/m 23,0 km/h (4 Bft) N-NO22.5 20 0 min 58 lux 0,00 min -7,1 C -19,3 C
11.03.2010 07:01 -6,3 C 94 % 1014 hPa 0,0 l/m 27,3 km/h (4 Bft) N-NO22.5 15 0 min 258 lux 0,00 min -7,1 C -21,2 C
11.03.2010 07:16 -6,2 C 94 % 1015 hPa 0,0 l/m 24,8 km/h (4 Bft) N-NO22.5 25 0 min 597 lux 0,00 min -7,0 C -20,0 C
11.03.2010 07:31 -6,2 C 94 % 1015 hPa 0,0 l/m 22,5 km/h (4 Bft) N-NO22.5 30 0 min 1,19 klux 0,00 min -7,0 C -18,9 C
11.03.2010 07:46 -6,2 C 94 % 1015 hPa 0,0 l/m 23,5 km/h (4 Bft) N-NO 20 0 min 1,35 klux 0,00 min -7,0 C -19,4 C
11.03.2010 08:01 -6,3 C 94 % 1015 hPa 0,0 l/m 29,5 km/h (5 Bft) N-NO45 20 0 min 2,32 klux 0,00 min -7,1 C -22,1 C
11.03.2010 08:15 -6,2 C 94 % 1015 hPa 0,0 l/m 30,0 km/h (5 Bft) N-NO22.5 30 0 min 3,80 klux 0,00 min -7,0 C -22,1 C
11.03.2010 08:30 -6,1 C 94 % 1015 hPa 0,0 l/m 27,5 km/h (4 Bft) NO22.5 35 0 min 6,08 klux 0,00 min -6,9 C -21,0 C
11.03.2010 08:45 -6,0 C 93 % 1015 hPa 0,0 l/m 30,0 km/h (5 Bft) NO22.5 35 0 min 8,34 klux 0,00 min -6,9 C -21,8 C
11.03.2010 09:01 -5,8 C 91 % 1015 hPa 0,0 l/m 34,3 km/h (5 Bft) N-NO22.5 25 0 min 14,8 klux 0,00 min -7,0 C -23,0 C
11.03.2010 09:16 -5,5 C 90 % 1015 hPa 0,0 l/m 28,6 km/h (4 Bft) N-NO22.5 15 0 min 21,5 klux 0,00 min -6,9 C -20,6 C
11.03.2010 09:31 -5,0 C 89 % 1015 hPa 0,0 l/m 29,3 km/h (5 Bft) N-NO22.5 25 15 min 31,0 klux 0,00 min -6,5 C -20,2 C
11.03.2010 09:46 -4,7 C 86 % 1015 hPa 0,0 l/m 31,0 km/h (5 Bft) NO22.5 40 15 min 34,8 klux 0,00 min -6,7 C -20,4 C
11.03.2010 10:01 -4,6 C 86 % 1015 hPa 0,0 l/m 26,1 km/h (4 Bft) N-NO22.5 20 15 min 55,7 klux 0,00 min -6,6 C -18,4 C
11.03.2010 10:15 -4,2 C 85 % 1015 hPa 0,0 l/m 26,0 km/h (4 Bft) N22.5 10 14 min 55,7 klux 0,00 min -6,3 C -17,8 C
11.03.2010 10:30 -3,6 C 83 % 1015 hPa 0,0 l/m 27,3 km/h (4 Bft) N-NO22.5 25 15 min 63,1 klux 0,00 min -6,1 C -17,5 C
11.03.2010 10:46 -3,5 C 83 % 1015 hPa 0,0 l/m 27,2 km/h (4 Bft) N-NO22.5 15 16 min 54,9 klux 0,00 min -6,0 C -17,3 C
11.03.2010 11:01 -3,7 C 83 % 1015 hPa 0,0 l/m 28,0 km/h (4 Bft) N-NO22.5 20 15 min 50,3 klux 0,00 min -6,2 C -17,9 C
11.03.2010 11:16 -3,8 C 83 % 1015 hPa 0,0 l/m 32,2 km/h (5 Bft) N-NO22.5 25 15 min 67,6 klux 0,00 min -6,3 C -19,5 C
11.03.2010 11:31 -3,3 C 81 % 1015 hPa 0,0 l/m 35,1 km/h (5 Bft) N-NO22.5 25 15 min 73,7 klux 0,00 min -6,1 C -19,6 C
11.03.2010 11:46 -2,7 C 80 % 1015 hPa 0,0 l/m 26,6 km/h (4 Bft) N-NO22.5 25 15 min 69,2 klux 0,00 min -5,7 C -16,0 C
11.03.2010 12:00 -2,8 C 81 % 1015 hPa 0,0 l/m 28,2 km/h (4 Bft) N-NO22.5 20 14 min 68,1 klux 0,00 min -5,6 C -16,7 C
11.03.2010 12:15 -2,6 C 80 % 1014 hPa 0,0 l/m 26,0 km/h (4 Bft) N67.5 360 15 min 73,9 klux 0,00 min -5,6 C -15,6 C
11.03.2010 12:31 -2,4 C 79 % 1015 hPa 0,0 l/m 23,4 km/h (4 Bft) N-NO22.5 15 16 min 74,8 klux 0,00 min -5,5 C -14,3 C
11.03.2010 12:46 -2,3 C 78 % 1014 hPa 0,0 l/m 26,8 km/h (4 Bft) N-NO22.5 20 15 min 70,3 klux 0,00 min -5,6 C -15,5 C
11.03.2010 13:01 -2,3 C 77 % 1014 hPa 0,0 l/m 27,5 km/h (4 Bft) N-NO22.5 25 15 min 71,4 klux 0,00 min -5,8 C -15,8 C
11.03.2010 13:16 -2,0 C 76 % 1014 hPa 0,0 l/m 24,8 km/h (4 Bft) N-NO67.5 15 15 min 74,6 klux 0,00 min -5,6 C -14,3 C
11.03.2010 13:31 -1,8 C 76 % 1014 hPa 0,0 l/m 21,0 km/h (4 Bft) N-NO22.5 20 15 min 71,0 klux 0,00 min -5,5 C -12,4 C
11.03.2010 13:45 -1,8 C 76 % 1014 hPa 0,0 l/m 24,9 km/h (4 Bft) N-NO22.5 30 14 min 70,7 klux 0,00 min -5,5 C -14,1 C
11.03.2010 14:00 -1,6 C 76 % 1014 hPa 0,0 l/m 19,1 km/h (3 Bft) N-NO22.5 25 15 min 72,3 klux 0,00 min -5,3 C -11,2 C
11.03.2010 14:16 -1,7 C 75 % 1014 hPa 0,0 l/m 20,6 km/h (4 Bft) N-NO22.5 20 16 min 67,4 klux 0,00 min -5,5 C -12,1 C
11.03.2010 14:31 -1,8 C 75 % 1014 hPa 0,0 l/m 21,6 km/h (4 Bft) N-NO22.5 25 15 min 63,5 klux 0,00 min -5,6 C -12,7 C
11.03.2010 14:46 -1,8 C 76 % 1014 hPa 0,0 l/m 21,1 km/h (4 Bft) N-NO22.5 25 15 min 60,4 klux 0,00 min -5,5 C -12,5 C
11.03.2010 15:01 -1,7 C 75 % 1014 hPa 0,0 l/m 19,9 km/h (4 Bft) N-NO67.5 15 15 min 57,6 klux 0,00 min -5,5 C -11,8 C
11.03.2010 15:15 -1,8 C 76 % 1014 hPa 0,0 l/m 19,0 km/h (3 Bft) N22.5 5 14 min 51,2 klux 0,00 min -5,5 C -11,5 C
11.03.2010 15:30 -2,0 C 76 % 1014 hPa 0,0 l/m 18,3 km/h (3 Bft) N22.5 10 15 min 46,4 klux 0,00 min -5,6 C -11,3 C
11.03.2010 15:45 -2,0 C 75 % 1014 hPa 0,0 l/m 19,5 km/h (3 Bft) N 360 15 min 45,2 klux 0,00 min -5,8 C -12,0 C
11.03.2010 16:01 -2,0 C 76 % 1014 hPa 0,0 l/m 20,6 km/h (4 Bft) N22.5 10 16 min 43,6 klux 0,00 min -5,6 C -12,5 C
11.03.2010 16:16 -1,9 C 76 % 1014 hPa 0,0 l/m 20,6 km/h (4 Bft) N-NO22.5 15 15 min 41,1 klux 0,00 min -5,6 C -12,4 C
11.03.2010 16:31 -2,1 C 75 % 1014 hPa 0,0 l/m 20,6 km/h (4 Bft) N-NO22.5 15 15 min 34,4 klux 0,00 min -5,9 C -12,6 C
11.03.2010 16:46 -2,2 C 76 % 1014 hPa 0,0 l/m 18,9 km/h (3 Bft) N-NO67.5 25 15 min 32,2 klux 0,00 min -5,8 C -11,9 C
11.03.2010 17:00 -2,4 C 76 % 1014 hPa 0,0 l/m 22,1 km/h (4 Bft) N22.5 5 14 min 28,7 klux 0,00 min -6,0 C -13,7 C
11.03.2010 17:15 -2,8 C 77 % 1014 hPa 0,0 l/m 19,2 km/h (3 Bft) N-NO22.5 20 0 min 24,0 klux 0,00 min -6,3 C -12,8 C
11.03.2010 17:30 -3,2 C 79 % 1014 hPa 0,0 l/m 19,5 km/h (3 Bft) N-NO45 15 0 min 15,9 klux 0,00 min -6,3 C -13,5 C
11.03.2010 17:46 -3,5 C 79 % 1014 hPa 0,0 l/m 20,1 km/h (4 Bft) N-NO22.5 20 0 min 12,4 klux 0,00 min -6,6 C -14,2 C
11.03.2010 18:01 -3,8 C 81 % 1014 hPa 0,0 l/m 17,8 km/h (3 Bft) NO22.5 35 0 min 8,33 klux 0,00 min -6,6 C -13,3 C
11.03.2010 18:16 -4,2 C 82 % 1014 hPa 0,0 l/m 19,6 km/h (3 Bft) N22.5 10 0 min 4,45 klux 0,00 min -6,8 C -14,8 C
11.03.2010 18:31 -4,5 C 83 % 1014 hPa 0,0 l/m 18,0 km/h (3 Bft) N-NO22.5 20 0 min 1,80 klux 0,00 min -6,9 C -14,3 C
11.03.2010 18:45 -4,8 C 84 % 1015 hPa 0,0 l/m 15,4 km/h (3 Bft) N-NO22.5 20 0 min 658 lux 0,00 min -7,1 C -13,1 C
11.03.2010 19:00 -5,0 C 85 % 1014 hPa 0,0 l/m 16,5 km/h (3 Bft) N22.5 10 0 min 122 lux 0,00 min -7,1 C -14,0 C
11.03.2010 19:16 -5,4 C 86 % 1015 hPa 0,0 l/m 14,8 km/h (3 Bft) N22.5 10 0 min 19 lux 0,00 min -7,4 C -13,4 C
11.03.2010 19:31 -5,6 C 87 % 1015 hPa 0,0 l/m 15,2 km/h (3 Bft) N22.5 10 0 min 4 lux 0,00 min -7,4 C -13,9 C
11.03.2010 19:46 -5,8 C 88 % 1015 hPa 0,0 l/m 15,4 km/h (3 Bft) N22.5 360 0 min 0 lux 0,00 min -7,5 C -14,3 C
11.03.2010 20:01 -5,8 C 88 % 1015 hPa 0,0 l/m 16,8 km/h (3 Bft) N22.5 5 0 min 0 lux 0,00 min -7,5 C -15,2 C
11.03.2010 20:16 -5,5 C 91 % 1015 hPa 0,0 l/m 14,4 km/h (3 Bft) N22.5 10 0 min 0 lux 0,00 min -6,7 C -13,2 C
11.03.2010 20:30 -4,7 C 94 % 1015 hPa 0,0 l/m 30,6 km/h (5 Bft) N22.5 5 0 min 0 lux 0,00 min -5,5 C -20,2 C
11.03.2010 20:45 -4,2 C 95 % 1015 hPa 0,0 l/m 28,5 km/h (4 Bft) N22.5 10 0 min 0 lux 0,00 min -4,9 C -18,8 C
11.03.2010 21:01 -4,1 C 95 % 1015 hPa 0,0 l/m 24,5 km/h (4 Bft) N67.5 5 0 min 0 lux 0,00 min -4,8 C -17,1 C
11.03.2010 21:16 -3,9 C 95 % 1015 hPa 0,0 l/m 22,8 km/h (4 Bft) N-NO67.5 15 0 min 0 lux 0,00 min -4,6 C -16,0 C
11.03.2010 21:31 -3,8 C 95 % 1015 hPa 0,0 l/m 21,5 km/h (4 Bft) N22.5 10 0 min 0 lux 0,00 min -4,5 C -15,3 C
11.03.2010 21:46 -3,8 C 94 % 1015 hPa 0,0 l/m 21,1 km/h (4 Bft) N22.5 5 0 min 0 lux 0,00 min -4,6 C -15,1 C
11.03.2010 21:54 -3,8 C 94 % 1015 hPa 0,0 l/m 21,1 km/h (4 Bft) N67.5 5 0 min 0 lux 0,00 min -4,6 C -15,1 C
11.03.2010 22:15 -3,6 C 95 % 1015 hPa 0,0 l/m 21,9 km/h (4 Bft) N45 5 0 min 0 lux 0,00 min -4,3 C -15,2 C
11.03.2010 22:31 -3,6 C 94 % 1015 hPa 0,0 l/m 20,3 km/h (4 Bft) N22.5 10 0 min 0 lux 0,00 min -4,4 C -14,4 C
11.03.2010 22:46 -3,5 C 95 % 1015 hPa 0,0 l/m 19,1 km/h (3 Bft) N22.5 10 0 min 0 lux 0,00 min -4,2 C -13,7 C
11.03.2010 23:01 -3,4 C 94 % 1015 hPa 0,0 l/m 12,6 km/h (3 Bft) N-NO22.5 15 0 min 0 lux 0,00 min -4,2 C -9,4 C
11.03.2010 23:16 -3,4 C 94 % 1015 hPa 0,0 l/m 8,2 km/h (2 Bft) N-NO 20 0 min 0 lux 0,00 min -4,2 C -5,4 C
11.03.2010 23:31 -3,5 C 94 % 1015 hPa 0,0 l/m 8,5 km/h (2 Bft) N-NO 20 0 min 0 lux 0,00 min -4,3 C -5,9 C
11.03.2010 23:45 -3,7 C 94 % 1015 hPa 0,0 l/m 7,6 km/h (2 Bft) N-NO 20 0 min 0 lux 0,00 min -4,5 C -5,1 C
11.03.2010 23:55 -3,7 C 94 % 1015 hPa 0,0 l/m 8,5 km/h (2 Bft) N 10 0 min 0 lux 0,00 min -4,5 C -6,1 C
_ Min-Zeit 06:01 14:16 03:01 - 23:45 - - - - - 05:31 09:01
Minimum _ -6,6 C 75 % 1014 hPa - 7,6 km/h (2 Bft) - - - - - -7,6 C -23,0 C
_ Max-Zeit 14:00 20:45 00:00 00:00 00:00 - - 10:46 12:31 00:00 22:46 23:45
Maximum _ -1,6 C 95 % 1015 hPa 0,0 l/m 36,9 km/h
N-NO (5 Bft)
- - 16 min 74,8 klux 0,00 min -4,2 C -5,1 C
Durchschnitt _ -4,3 C 87 % 1015 hPa #0,0 l/m 22,5 km/h (4 Bft) N-NO - #7:44 h 19,6 klux #0 min. -6,2 C -16,1 C